Location: Hopville
(44.8032°N, 123.1329°W)
Time: 03:53:29
(UTC+00:00)

SJ-7 - Pass Details

Date: 24 January 2021
Orbit: 554 x 603 km, 97.7° (Epoch: 26 February)

Event Time Altitude Azimuth Distance (km) Brightness Sun altitude
Rises 13:59:55 0° 13° (NNE) 2,832 8.0 -17.6°
Reaches altitude 10° 14:02:07 10° 14° (NNE) 1,919 7.1 -17.2°
Maximum altitude 14:06:17 85° 104° (ESE) 588 4.4 -16.5°
Drops below altitude 10° 14:10:21 10° 192° (SSW) 1,873 7.0 -15.8°
Sets 14:12:28 0° 193° (SSW) 2,758 7.9 -15.4°
